Time,TemperatureF,DewpointF,PressureIn,WindDirection,WindDirectionDegrees,WindSpeedMPH,WindSpeedGustMPH,Humidity,HourlyPrecipIn,Conditions,Clouds,dailyrainin,SoftwareType,DateUTC
2014-02-25 00:09:00,31.2,22.0,30.14,NNW,347,0.0,0.0,70,0.00,,,0.00,weatherlink.com 1.10,2014-02-25 05:09:00,
2014-02-25 00:24:00,31.2,23.0,30.13,NNW,347,0.0,1.0,72,0.00,,,0.00,weatherlink.com 1.10,2014-02-25 05:24:00,
2014-02-25 00:39:00,31.1,24.0,30.14,NNW,347,0.0,1.0,74,0.00,,,0.00,weatherlink.com 1.10,2014-02-25 05:39:00,
2014-02-25 00:54:00,31.0,24.0,30.14,NNW,347,0.0,1.0,74,0.00,,,0.00,weatherlink.com 1.10,2014-02-25 05:54:00,
2014-02-25 01:09:00,30.6,24.0,30.13,NNW,347,0.0,1.0,76,0.00,,,0.00,weatherlink.com 1.10,2014-02-25 06:09:00,
2014-02-25 01:24:00,30.8,24.0,30.13,NNW,347,0.0,1.0,76,0.00,,,0.00,weatherlink.com 1.10,2014-02-25 06:24:00,
2014-02-25 01:39:00,30.8,24.0,30.13,NNW,347,0.0,0.0,77,0.00,,,0.00,weatherlink.com 1.10,2014-02-25 06:39:00,
2014-02-25 01:54:00,31.4,24.0,30.13,NNW,347,0.0,0.0,75,0.00,,,0.00,weatherlink.com 1.10,2014-02-25 06:54:00,
2014-02-25 02:09:00,32.0,25.0,30.13,NNW,347,0.0,0.0,76,0.00,,,0.00,weatherlink.com 1.10,2014-02-25 07:09:00,
2014-02-25 02:24:00,32.8,26.0,30.12,NNW,347,0.0,1.0,76,0.00,,,0.00,weatherlink.com 1.10,2014-02-25 07:24:00,
2014-02-25 02:39:00,33.5,27.0,30.13,NNW,347,0.0,1.0,78,0.00,,,0.00,weatherlink.com 1.10,2014-02-25 07:39:00,
2014-02-25 02:54:00,33.2,26.0,30.13,North,7,0.0,1.0,75,0.00,,,0.00,weatherlink.com 1.10,2014-02-25 07:54:00,
2014-02-25 03:09:00,32.6,26.0,30.14,North,4,0.0,1.0,77,0.00,,,0.00,weatherlink.com 1.10,2014-02-25 08:09:00,
2014-02-25 03:24:00,32.3,26.0,30.14,North,5,1.0,1.0,78,0.00,,,0.00,weatherlink.com 1.10,2014-02-25 08:24:00,
2014-02-25 03:39:00,32.4,27.0,30.14,North,5,0.0,0.0,79,0.00,,,0.00,weatherlink.com 1.10,2014-02-25 08:39:00,
2014-02-25 03:54:00,32.7,27.0,30.13,North,5,0.0,0.0,79,0.00,,,0.00,weatherlink.com 1.10,2014-02-25 08:54:00,
2014-02-25 04:09:00,33.1,28.0,30.12,WSW,238,0.0,1.0,80,0.00,,,0.00,weatherlink.com 1.10,2014-02-25 09:09:00,
2014-02-25 04:24:00,33.4,28.0,30.10,WSW,239,0.0,0.0,81,0.00,,,0.00,weatherlink.com 1.10,2014-02-25 09:24:00,
2014-02-25 04:40:00,33.6,28.0,30.09,WSW,239,0.0,1.0,81,0.00,,,0.00,weatherlink.com 1.10,2014-02-25 09:40:00,
2014-02-25 04:55:00,34.0,29.0,30.09,WSW,239,0.0,0.0,82,0.00,,,0.00,weatherlink.com 1.10,2014-02-25 09:55:00,
2014-02-25 05:10:00,34.8,30.0,30.09,WSW,239,0.0,1.0,82,0.00,,,0.00,weatherlink.com 1.10,2014-02-25 10:10:00,
2014-02-25 05:25:00,35.1,30.0,30.09,WSW,239,0.0,1.0,80,0.00,,,0.00,weatherlink.com 1.10,2014-02-25 10:25:00,
2014-02-25 05:40:00,35.9,30.0,30.09,WSW,239,0.0,0.0,80,0.00,,,0.00,weatherlink.com 1.10,2014-02-25 10:40:00,
2014-02-25 05:55:00,36.5,31.0,30.12,NNW,344,0.0,1.0,79,0.00,,,0.00,weatherlink.com 1.10,2014-02-25 10:55:00,
2014-02-25 06:10:00,36.4,29.0,30.13,West,270,0.0,1.0,74,0.00,,,0.00,weatherlink.com 1.10,2014-02-25 11:10:00,
2014-02-25 06:25:00,36.2,30.0,30.14,West,276,1.0,1.0,77,0.00,,,0.00,weatherlink.com 1.10,2014-02-25 11:25:00,
2014-02-25 06:40:00,36.0,30.0,30.15,NW,304,0.0,1.0,79,0.00,,,0.00,weatherlink.com 1.10,2014-02-25 11:40:00,
2014-02-25 06:55:00,36.0,30.0,30.13,SE,130,0.0,1.0,78,0.00,,,0.00,weatherlink.com 1.10,2014-02-25 11:55:00,
2014-02-25 07:10:00,36.0,31.0,30.15,NNW,347,0.0,1.0,83,0.00,,,0.00,weatherlink.com 1.10,2014-02-25 12:10:00,
2014-02-25 07:25:00,36.0,31.0,30.15,NNW,345,0.0,1.0,82,0.00,,,0.00,weatherlink.com 1.10,2014-02-25 12:25:00,
2014-02-25 07:40:00,36.2,32.0,30.16,SW,229,0.0,1.0,84,0.00,,,0.00,weatherlink.com 1.10,2014-02-25 12:40:00,
2014-02-25 07:55:00,36.3,32.0,30.15,SW,229,0.0,1.0,83,0.00,,,0.00,weatherlink.com 1.10,2014-02-25 12:55:00,
2014-02-25 08:10:00,36.6,32.0,30.15,SW,231,0.0,1.0,84,0.00,,,0.00,weatherlink.com 1.10,2014-02-25 13:10:00,
2014-02-25 08:25:00,37.1,32.0,30.14,SW,231,0.0,1.0,82,0.00,,,0.00,weatherlink.com 1.10,2014-02-25 13:25:00,
2014-02-25 08:40:00,38.0,33.0,30.14,SSW,205,0.0,1.0,83,0.00,,,0.00,weatherlink.com 1.10,2014-02-25 13:40:00,
2014-02-25 08:55:00,39.0,34.0,30.15,SSW,205,0.0,1.0,81,0.00,,,0.00,weatherlink.com 1.10,2014-02-25 13:55:00,
2014-02-25 09:10:00,40.4,33.0,30.15,SSW,205,0.0,1.0,76,0.00,,,0.00,weatherlink.com 1.10,2014-02-25 14:10:00,
2014-02-25 09:25:00,41.8,32.0,30.15,SSW,210,0.0,1.0,69,0.00,,,0.00,weatherlink.com 1.10,2014-02-25 14:25:00,
2014-02-25 09:40:00,43.3,34.0,30.16,South,184,0.0,2.0,71,0.00,,,0.00,weatherlink.com 1.10,2014-02-25 14:40:00,
2014-02-25 09:55:00,44.8,34.0,30.15,SSE,153,0.0,1.0,67,0.00,,,0.00,weatherlink.com 1.10,2014-02-25 14:55:00,
2014-02-25 10:10:00,45.0,35.0,30.15,SSE,153,0.0,1.0,67,0.00,,,0.00,weatherlink.com 1.10,2014-02-25 15:10:00,
2014-02-25 10:25:00,46.5,34.0,30.15,North,354,1.0,1.0,62,0.00,,,0.00,weatherlink.com 1.10,2014-02-25 15:25:00,
2014-02-25 10:40:00,47.8,32.0,30.14,SE,143,2.0,5.0,55,0.00,,,0.00,weatherlink.com 1.10,2014-02-25 15:40:00,
2014-02-25 10:55:00,48.8,31.0,30.14,ENE,61,2.0,6.0,51,0.00,,,0.00,weatherlink.com 1.10,2014-02-25 15:55:00,
2014-02-25 11:10:00,49.5,31.0,30.14,NNE,29,3.0,5.0,49,0.00,,,0.00,weatherlink.com 1.10,2014-02-25 16:10:00,
2014-02-25 11:26:00,49.8,31.0,30.13,ENE,68,1.0,10.0,49,0.00,,,0.00,weatherlink.com 1.10,2014-02-25 16:26:00,
2014-02-25 11:41:00,50.1,30.0,30.13,NNW,335,1.0,7.0,46,0.00,,,0.00,weatherlink.com 1.10,2014-02-25 16:41:00,
2014-02-25 11:56:00,51.7,31.0,30.13,NE,43,5.0,7.0,46,0.00,,,0.00,weatherlink.com 1.10,2014-02-25 16:56:00,
2014-02-25 12:11:00,51.7,31.0,30.12,North,9,3.0,8.0,45,0.00,,,0.00,weatherlink.com 1.10,2014-02-25 17:11:00,
2014-02-25 12:26:00,53.1,31.0,30.11,ESE,110,1.0,5.0,43,0.00,,,0.00,weatherlink.com 1.10,2014-02-25 17:26:00,
2014-02-25 12:41:00,52.6,31.0,30.11,WSW,238,1.0,8.0,44,0.00,,,0.00,weatherlink.com 1.10,2014-02-25 17:41:00,
2014-02-25 12:56:00,54.0,31.0,30.09,ENE,74,1.0,6.0,42,0.00,,,0.00,weatherlink.com 1.10,2014-02-25 17:56:00,
2014-02-25 13:11:00,54.4,32.0,30.08,North,9,5.0,10.0,42,0.00,,,0.00,weatherlink.com 1.10,2014-02-25 18:11:00,
2014-02-25 13:26:00,54.7,32.0,30.08,NE,44,3.0,5.0,42,0.00,,,0.00,weatherlink.com 1.10,2014-02-25 18:26:00,
2014-02-25 13:41:00,56.1,32.0,30.07,NE,41,1.0,5.0,41,0.00,,,0.00,weatherlink.com 1.10,2014-02-25 18:41:00,
2014-02-25 13:56:00,56.0,33.0,30.06,ENE,67,1.0,5.0,42,0.00,,,0.00,weatherlink.com 1.10,2014-02-25 18:56:00,
2014-02-25 14:11:00,57.6,33.0,30.05,East,94,2.0,6.0,39,0.00,,,0.00,weatherlink.com 1.10,2014-02-25 19:11:00,
2014-02-25 14:26:00,57.4,33.0,30.05,North,356,3.0,5.0,40,0.00,,,0.00,weatherlink.com 1.10,2014-02-25 19:26:00,
2014-02-25 14:41:00,56.6,32.0,30.04,NW,312,3.0,6.0,40,0.00,,,0.00,weatherlink.com 1.10,2014-02-25 19:41:00,
2014-02-25 14:56:00,56.4,32.0,30.03,NE,34,4.0,7.0,40,0.00,,,0.00,weatherlink.com 1.10,2014-02-25 19:56:00,
2014-02-25 15:11:00,57.0,33.0,30.02,ENE,75,1.0,8.0,40,0.00,,,0.00,weatherlink.com 1.10,2014-02-25 20:11:00,
2014-02-25 15:26:00,57.0,32.0,30.02,NW,323,4.0,8.0,39,0.00,,,0.00,weatherlink.com 1.10,2014-02-25 20:26:00,
2014-02-25 15:41:00,58.3,33.0,30.02,NNW,336,2.0,5.0,38,0.00,,,0.00,weatherlink.com 1.10,2014-02-25 20:41:00,
2014-02-25 15:56:00,56.6,32.0,30.01,NE,53,3.0,7.0,39,0.00,,,0.00,weatherlink.com 1.10,2014-02-25 20:56:00,
2014-02-25 16:11:00,57.1,32.0,30.01,NE,54,2.0,5.0,39,0.00,,,0.00,weatherlink.com 1.10,2014-02-25 21:11:00,
2014-02-25 16:26:00,55.8,30.0,30.01,North,8,1.0,5.0,37,0.00,,,0.00,weatherlink.com 1.10,2014-02-25 21:26:00,
2014-02-25 16:41:00,55.0,30.0,30.01,North,6,5.0,6.0,39,0.00,,,0.00,weatherlink.com 1.10,2014-02-25 21:41:00,
2014-02-25 16:56:00,54.1,29.0,30.01,NE,47,5.0,6.0,39,0.00,,,0.00,weatherlink.com 1.10,2014-02-25 21:56:00,
2014-02-25 17:11:00,53.2,30.0,30.00,East,84,0.0,5.0,41,0.00,,,0.00,weatherlink.com 1.10,2014-02-25 22:11:00,
2014-02-25 17:26:00,52.8,29.0,30.00,NNE,13,1.0,2.0,41,0.00,,,0.00,weatherlink.com 1.10,2014-02-25 22:26:00,
2014-02-25 17:41:00,52.0,29.0,30.00,NNE,16,1.0,4.0,42,0.00,,,0.00,weatherlink.com 1.10,2014-02-25 22:41:00,
2014-02-25 17:56:00,51.3,29.0,30.01,ENE,77,2.0,4.0,43,0.00,,,0.00,weatherlink.com 1.10,2014-02-25 22:56:00,
2014-02-25 18:11:00,50.5,29.0,30.02,NNE,16,0.0,1.0,44,0.00,,,0.00,weatherlink.com 1.10,2014-02-25 23:11:00,
2014-02-25 18:26:00,49.1,29.0,30.02,North,8,0.0,2.0,47,0.00,,,0.00,weatherlink.com 1.10,2014-02-25 23:26:00,
2014-02-25 18:41:00,47.6,30.0,30.02,North,359,0.0,2.0,51,0.00,,,0.00,weatherlink.com 1.10,2014-02-25 23:41:00,
2014-02-25 18:56:00,45.8,30.0,30.03,North,11,1.0,2.0,54,0.00,,,0.00,weatherlink.com 1.10,2014-02-25 23:56:00,
2014-02-25 19:11:00,44.6,30.0,30.03,North,360,1.0,1.0,57,0.00,,,0.00,weatherlink.com 1.10,2014-02-26 00:11:00,
2014-02-25 19:26:00,43.6,30.0,30.04,SW,222,1.0,2.0,59,0.00,,,0.00,weatherlink.com 1.10,2014-02-26 00:26:00,
2014-02-25 19:41:00,43.4,28.0,30.04,NNW,346,0.0,2.0,56,0.00,,,0.00,weatherlink.com 1.10,2014-02-26 00:41:00,
2014-02-25 19:56:00,42.8,29.0,30.04,NNW,347,2.0,2.0,58,0.00,,,0.00,weatherlink.com 1.10,2014-02-26 00:56:00,
2014-02-25 20:11:00,41.9,28.0,30.05,North,349,1.0,1.0,59,0.00,,,0.00,weatherlink.com 1.10,2014-02-26 01:11:00,
2014-02-25 20:26:00,40.9,28.0,30.04,North,350,0.0,2.0,60,0.00,,,0.00,weatherlink.com 1.10,2014-02-26 01:26:00,
2014-02-25 20:41:00,40.1,27.0,30.05,North,349,0.0,1.0,59,0.00,,,0.00,weatherlink.com 1.10,2014-02-26 01:41:00,
2014-02-25 20:56:00,39.8,27.0,30.05,WNW,298,0.0,2.0,60,0.00,,,0.00,weatherlink.com 1.10,2014-02-26 01:56:00,
2014-02-25 21:12:00,39.3,26.0,30.05,North,4,1.0,1.0,59,0.00,,,0.00,weatherlink.com 1.10,2014-02-26 02:12:00,
2014-02-25 21:27:00,40.0,25.0,30.05,SSW,211,0.0,1.0,56,0.00,,,0.00,weatherlink.com 1.10,2014-02-26 02:27:00,
2014-02-25 21:42:00,39.7,24.0,30.06,NE,43,1.0,2.0,54,0.00,,,0.00,weatherlink.com 1.10,2014-02-26 02:42:00,
2014-02-25 21:57:00,39.2,25.0,30.06,NE,41,0.0,1.0,56,0.00,,,0.00,weatherlink.com 1.10,2014-02-26 02:57:00,
2014-02-25 22:12:00,39.1,24.0,30.06,NNW,341,0.0,2.0,54,0.00,,,0.00,weatherlink.com 1.10,2014-02-26 03:12:00,
2014-02-25 22:27:00,38.7,23.0,30.06,West,270,0.0,2.0,53,0.00,,,0.00,weatherlink.com 1.10,2014-02-26 03:27:00,
2014-02-25 22:42:00,38.3,24.0,30.06,NNW,336,1.0,1.0,56,0.00,,,0.00,weatherlink.com 1.10,2014-02-26 03:42:00,
2014-02-25 22:57:00,37.1,23.0,30.05,South,180,1.0,1.0,56,0.00,,,0.00,weatherlink.com 1.10,2014-02-26 03:57:00,
2014-02-25 23:12:00,36.3,22.0,30.04,NNW,342,0.0,1.0,56,0.00,,,0.00,weatherlink.com 1.10,2014-02-26 04:12:00,
2014-02-25 23:27:00,35.7,23.0,30.01,NNE,23,1.0,1.0,61,0.00,,,0.00,weatherlink.com 1.10,2014-02-26 04:27:00,
2014-02-25 23:42:00,34.9,22.0,30.02,WNW,290,0.0,2.0,60,0.00,,,0.00,weatherlink.com 1.10,2014-02-26 04:42:00,
2014-02-25 23:57:00,35.0,21.0,30.02,NNW,344,0.0,1.0,57,0.00,,,0.00,weatherlink.com 1.10,2014-02-26 04:57:00,